This demonstration page uses our WeatherBlox Daily Observations layout. Learn more.

39.29038, -76.61219

Hourly Observations for July 1, 2015

Temp ( °F °C ) Dew Point ( °F °C ) Humidity (%) Winds ( mph kmh ) Pressure ( in mb ) Visibility ( mi km ) Precip ( " mm )
12:54 am 00:54 Mostly Clear 77 25 66 18.9 69 69 undefined N/A 29.79 1009 N/A 0 0
1:54 am 01:54 undefined 70 21.1 67 19.4 90 90 undefined N/A 29.85 1011 N/A 0.2 5.08
2:54 am 02:54 Cloudy 78 25.6 76 24.7 95 95 undefined N/A 29.72 1006 N/A 0.16 4.064
3:54 am 03:54 undefined 68 20 65 18.3 90 90 undefined N/A 29.81 1010 N/A 0.02 0.508
4:54 am 04:54 undefined 68 20 65 18.3 90 90 undefined N/A 29.83 1010 N/A 0 0
5:54 am 05:54 undefined 68 20 65 18.3 90 90 undefined N/A 29.83 1010 N/A 0 0
6:54 am 06:54 Mostly Sunny 48 8.9 44 6.7 86 86 undefined N/A 30.09 1019 N/A 0 0
7:54 am 07:54 Mostly Cloudy 73 22.8 65 18.3 76 76 undefined N/A 29.86 1011 N/A 0 0
8:54 am 08:54 undefined 73 22.8 66 18.9 79 79 undefined N/A 29.87 1012 N/A 0 0
9:54 am 09:54 undefined 78 25.6 64 17.8 62 62 undefined N/A 29.86 1011 N/A 0 0
10:54 am 10:54 Mostly Cloudy 79 26.1 72 22.1 79 79 undefined N/A 29.85 1011 N/A 0 0
11:54 am 11:54 undefined 82 27.8 63 17.2 53 53 undefined N/A 29.86 1011 N/A 0 0
12:54 pm 12:54 undefined 84 28.9 63 17.2 49 49 undefined N/A 29.87 1011 N/A 0 0
1:54 pm 13:54 undefined 85 29.4 63 17.2 48 48 undefined N/A 29.84 1011 N/A 0 0
2:54 pm 14:54 Mostly Sunny 85 29.4 60 15.6 43 43 undefined N/A 29.84 1011 N/A 0 0
3:54 pm 15:54 Mostly Sunny 86 30 62 16.7 45 45 undefined N/A 29.83 1010 N/A 0 0
4:54 pm 16:54 Partly Cloudy 93 33.9 67 19.4 42 42 undefined N/A 30.02 1017 N/A 0 0
5:54 pm 17:54 Mostly Sunny 83 28.6 70 21.1 64 64 undefined N/A 29.84 1011 N/A 0 0
6:54 pm 18:54 undefined 84 28.9 63 17.2 49 49 undefined N/A 29.81 1010 N/A 0 0
7:54 pm 19:54 undefined 80 26.7 69 20.6 69 69 undefined N/A 29.81 1009 N/A 0 0
8:54 pm 20:54 undefined 81 27.2 59 15 47 47 undefined N/A 29.85 1011 N/A 0 0
9:54 pm 21:54 Mostly Clear 80 26.7 58 14.4 47 47 undefined N/A 29.88 1012 N/A 0 0
10:54 pm 22:54 Cloudy 79 26.1 58 14.4 49 49 undefined N/A 29.9 1012 N/A 0 0
11:54 pm 23:54 Mostly Cloudy 77 25 59 15 54 54 undefined N/A 29.9 1012 N/A 0 0

Powered by AerisWeather